Wind_Speed
16 15 14 15 16 16 16 16 16 16 16 16 16 16 16 17 16 16 17 18 18 18 18 19 19 19 19 19 19 19 19 19 19 19 18 19 19 19 18 18 18 19 19
16 16 16 16 16 16 17 17 17 17 17 18 18 18 17 18 18 18 19 19 19 20 20 19 20 20 21 20 20 20 20 20 20 20 20 20 20 20 19 18 18 18 19
17 17 17 16 16 17 17 18 18 19 19 19 19 19 18 18 19 20 20 20 20 21 21 21 21 21 22 22 22 21 21 21 21 21 21 21 21 20 20 19 19 19 19
18 18 17 17 17 17 18 18 19 20 20 20 19 19 19 20 20 20 21 21 21 21 22 22 22 23 23 23 23 23 23 23 23 22 22 22 21 20 20 20 20 20 20
19 18 18 18 18 19 19 19 20 21 21 21 20 20 20 21 20 20 21 22 23 22 23 24 24 24 25 25 25 25 25 25 24 23 23 23 22 22 22 22 22 21 21
19 19 19 19 19 20 20 21 22 22 22 22 21 21 21 22 22 22 22 23 24 24 24 25 25 25 25 26 26 26 26 26 26 25 24 23 23 23 23 23 23 22 22
21 20 21 21 21 21 22 23 23 23 23 22 23 22 22 23 23 24 24 24 24 24 25 26 26 26 26 27 27 27 26 26 26 26 26 25 24 23 23 23 24 23 23
21 22 22 22 22 22 23 23 24 24 23 23 23 23 23 23 23 24 24 25 24 24 25 26 27 27 27 28 28 28 27 27 27 26 26 26 25 24 24 24 24 24 24
22 23 23 23 22 22 23 23 24 24 24 24 23 23 23 23 24 25 26 25 24 25 25 26 26 26 27 27 28 28 28 28 28 27 26 26 26 26 26 25 25 25 25
23 23 24 23 24 24 24 24 24 24 25 25 25 25 25 25 25 25 25 25 25 25 25 25 26 27 27 27 28 28 28 28 29 28 28 27 28 28 27 26 26 26 26
22 22 23 24 24 24 24 25 25 25 25 26 26 26 26 26 26 26 26 26 26 27 26 26 26 27 27 27 28 28 29 28 29 29 29 29 29 28 28 28 27 26 27
21 22 23 24 25 26 26 26 26 25 26 26 27 27 27 26 27 27 27 27 27 27 27 26 26 26 26 27 27 28 28 29 29 29 29 29 29 29 28 29 28 27 27
22 22 23 24 25 26 27 26 27 26 27 27 27 27 27 27 27 27 28 28 27 27 27 27 27 27 26 26 26 27 28 29 29 29 29 29 29 29 29 29 28 28 28
22 23 24 25 25 26 26 26 27 27 27 28 27 27 27 27 27 28 28 28 27 28 28 28 28 28 28 27 26 27 27 28 29 30 29 29 29 29 28 28 28 28 28
23 24 25 25 25 26 26 26 27 28 28 28 28 28 29 28 28 28 28 28 28 28 28 28 28 28 29 28 27 27 27 27 27 28 29 28 29 29 28 28 28 28 28
23 24 24 25 25 25 26 27 27 28 29 29 30 30 29 29 30 30 29 30 30 29 28 28 28 28 29 28 28 28 27 27 27 27 29 30 30 30 29 29 29 28 29
24 25 25 25 25 25 26 26 27 28 29 29 30 30 31 31 31 30 30 30 30 29 29 29 28 28 28 28 27 28 28 28 28 27 28 30 31 31 31 30 30 30 29
24 25 25 25 25 26 25 26 26 27 27 28 29 29 30 31 31 30 30 30 29 29 29 29 28 28 27 27 28 28 29 29 29 29 29 30 31 31 31 31 31 31 30
23 24 24 25 25 24 25 25 26 27 27 27 28 28 29 29 29 29 29 29 28 28 28 27 27 27 27 28 29 29 29 30 30 29 29 31 32 32 32 32 32 31 31
23 24 24 24 24 24 25 25 26 26 26 26 26 27 27 27 28 28 28 28 28 28 28 27 27 27 27 28 29 29 29 29 29 30 30 30 32 33 33 32 32 32 32
24 24 25 24 24 25 25 25 25 25 26 26 25 25 26 26 27 28 29 29 28 28 28 28 27 27 27 27 29 29 29 30 30 30 30 30 31 32 33 33 33 32 33
24 25 25 25 24 23 24 23 24 25 26 26 25 25 26 26 27 27 28 28 28 28 28 28 27 27 27 27 28 28 28 29 29 30 30 30 30 30 31 32 33 33 33
25 25 24 24 23 23 23 23 23 24 24 25 26 26 27 27 28 28 29 29 29 29 29 28 28 27 27 28 28 28 28 28 29 29 30 29 29 30 31 31 31 32 33
25 25 24 24 23 23 23 23 23 23 23 23 24 25 25 26 26 27 29 29 29 29 29 29 28 27 27 27 28 28 28 28 28 28 28 28 28 29 29 30 30 30 31
25 25 24 23 23 23 22 22 21 22 21 21 21 22 24 24 24 25 26 26 27 28 28 28 28 28 27 27 27 28 28 28 27 27 28 28 28 29 29 29 29 29 29
25 25 23 23 22 22 22 21 21 20 21 21 21 21 22 23 23 24 24 24 25 26 27 28 27 27 27 27 27 27 27 27 27 27 27 28 28 28 28 28 28 29 29
Wind_Direction
288 284 280 275 271 270 267 265 266 267 269 269 270 268 267 264 262 262 264 263 260 261 262 263 263 260 255 254 254 253 253 252 250 249 250 250 251 251 253 253 252 250 251
288 283 281 277 273 271 268 266 267 267 267 267 268 267 267 265 263 264 265 264 259 259 262 265 263 262 260 257 254 253 254 254 252 251 251 252 253 254 255 256 255 252 249
285 283 278 274 273 270 268 267 268 266 267 268 267 266 265 266 267 264 264 263 260 259 261 263 263 263 261 258 255 253 254 254 253 254 253 252 253 254 255 256 255 254 253
283 282 277 274 273 269 268 268 268 267 268 269 268 266 265 266 268 267 264 264 263 261 261 261 262 262 261 259 257 254 253 253 254 255 254 253 252 252 253 253 253 254 255
284 282 278 275 272 269 267 267 268 267 266 268 268 267 267 266 267 268 267 264 263 263 262 262 262 262 260 258 257 256 254 255 255 255 255 254 252 252 252 253 252 253 254
284 281 279 275 272 270 268 268 269 269 268 267 267 269 268 266 267 267 268 266 264 263 262 263 262 261 260 258 256 256 256 255 255 255 256 255 253 253 252 252 252 252 254
283 281 280 277 274 271 271 270 269 269 268 268 267 268 268 266 267 268 267 266 266 264 262 261 260 260 259 257 256 256 256 255 255 255 256 255 253 252 251 252 252 252 254
283 280 277 276 276 274 273 272 272 271 269 268 268 268 267 267 268 268 266 267 266 264 263 260 261 261 259 257 256 255 255 255 255 255 255 254 252 250 250 252 252 253 254
282 279 277 278 279 279 278 276 273 271 268 267 267 269 269 270 269 269 268 266 264 265 265 263 261 261 260 257 257 257 257 256 256 256 255 254 252 252 250 250 252 253 254
281 280 279 278 277 277 277 276 273 270 268 266 267 268 270 270 270 268 267 268 265 265 265 264 262 259 260 258 256 257 259 259 257 256 255 254 254 253 252 251 252 253 254
283 281 279 278 276 276 276 275 273 270 269 268 267 267 269 269 268 267 267 269 270 266 266 266 263 259 259 258 256 256 257 259 258 256 255 254 254 253 252 253 254 253 253
285 282 279 279 278 276 275 273 272 270 269 270 267 265 266 267 267 267 268 269 268 267 265 266 266 262 259 258 256 255 257 257 257 256 255 254 254 252 251 252 254 254 254
286 285 283 282 281 279 276 274 272 270 269 269 267 264 265 267 267 267 268 268 267 266 266 267 266 263 260 258 257 257 256 256 256 255 255 254 253 252 251 251 252 255 254
289 288 286 286 284 281 277 274 272 271 269 269 266 264 265 267 267 267 267 267 265 266 267 267 266 262 258 258 259 258 257 256 254 253 255 253 251 251 250 251 252 254 253
288 288 288 286 284 282 277 274 272 270 269 268 266 265 266 266 267 268 267 266 265 264 264 264 264 263 259 257 257 256 257 258 256 254 253 252 251 250 250 251 252 253 253
289 288 288 287 285 283 280 276 273 271 270 268 265 264 265 266 267 267 266 266 266 264 262 262 262 262 259 257 257 256 257 257 257 255 252 251 251 250 249 251 252 253 253
289 290 290 289 287 284 281 278 275 274 270 268 266 266 266 266 266 266 265 265 264 263 262 261 261 260 258 259 258 256 257 258 257 255 253 251 251 251 250 252 253 254 254
291 291 291 291 288 285 283 279 276 274 271 269 268 268 268 266 265 264 264 265 263 263 263 261 260 259 258 258 258 259 258 258 258 257 256 254 252 250 251 253 253 253 253
297 296 295 292 289 285 284 281 278 275 272 271 269 269 269 267 264 263 264 264 263 264 263 261 259 257 256 257 259 260 259 258 259 258 257 255 254 253 254 254 253 252 252
302 302 301 297 291 287 285 283 280 278 275 273 271 269 267 267 265 263 263 263 263 263 261 260 258 257 256 257 259 261 260 260 259 259 257 257 256 255 254 253 252 252 252
303 302 301 298 294 290 287 282 280 277 275 273 273 271 270 269 268 265 264 264 263 263 261 260 260 259 258 259 261 261 261 260 259 259 258 258 258 256 254 253 253 253 253
302 301 300 298 295 293 291 286 281 279 277 276 275 274 271 270 269 267 265 264 264 264 261 261 261 260 259 260 261 260 260 260 259 258 258 257 257 256 256 255 254 254 253
303 302 302 300 298 296 293 288 285 281 281 278 275 272 270 270 268 267 266 265 264 262 261 261 261 261 260 260 260 259 258 259 259 257 256 256 256 255 256 255 255 256 256
305 304 302 301 299 297 294 291 289 287 285 282 278 274 272 271 270 269 268 265 263 262 262 261 260 261 260 259 259 258 258 259 260 259 256 255 256 255 255 256 255 256 256
306 305 303 301 299 298 296 294 293 291 289 284 280 277 274 272 270 270 268 266 263 262 261 259 259 259 258 258 258 258 258 258 258 259 256 255 255 254 254 256 257 256 257
306 305 304 302 301 299 298 295 293 290 286 284 281 280 278 275 272 271 270 266 265 264 261 259 257 258 259 259 259 259 259 258 257 257 257 256 255 254 256 256 258 258 257
Height
5840 5840 5840 5840 5840 5840 5841 5841 5842 5842 5843 5844 5845 5845 5846 5846 5847 5848 5849 5849 5850 5851 5852 5853 5854 5855 5856 5857 5859 5860 5861 5862 5864 5865 5866 5867 5868 5869 5870 5871 5872 5874 5875
5836 5836 5836 5836 5836 5836 5837 5837 5838 5838 5839 5840 5840 5841 5842 5842 5843 5843 5844 5845 5846 5847 5848 5849 5850 5851 5851 5853 5854 5855 5857 5858 5859 5860 5861 5863 5864 5865 5866 5867 5868 5869 5871
5832 5831 5831 5831 5832 5832 5832 5833 5833 5834 5835 5835 5836 5836 5837 5837 5838 5838 5839 5840 5841 5842 5843 5844 5845 5846 5846 5848 5849 5850 5852 5853 5854 5856 5857 5858 5859 5861 5862 5863 5864 5865 5867
5827 5827 5827 5827 5827 5827 5828 5828 5829 5829 5830 5830 5831 5832 5832 5833 5833 5833 5834 5835 5835 5836 5837 5838 5839 5840 5841 5842 5844 5845 5847 5848 5849 5850 5852 5853 5854 5856 5857 5858 5860 5861 5862
5823 5822 5822 5822 5822 5822 5823 5823 5824 5824 5825 5825 5826 5826 5826 5827 5828 5828 5828 5828 5829 5830 5831 5832 5833 5834 5835 5837 5838 5839 5841 5842 5843 5845 5846 5848 5849 5851 5852 5853 5855 5856 5858
5817 5817 5817 5817 5817 5817 5817 5818 5818 5818 5819 5820 5820 5820 5821 5821 5822 5822 5822 5823 5823 5824 5825 5826 5827 5828 5829 5830 5832 5833 5835 5836 5837 5839 5840 5842 5844 5845 5847 5848 5850 5851 5853
5812 5812 5811 5811 5811 5811 5811 5811 5812 5812 5813 5813 5814 5814 5815 5815 5816 5816 5816 5816 5817 5818 5818 5819 5820 5821 5822 5824 5826 5827 5828 5830 5831 5833 5834 5836 5838 5840 5841 5843 5844 5846 5847
5806 5805 5805 5805 5805 5805 5805 5805 5805 5806 5806 5806 5807 5807 5808 5809 5809 5809 5810 5810 5811 5811 5812 5813 5813 5814 5815 5817 5818 5820 5822 5823 5825 5826 5828 5830 5832 5833 5835 5837 5839 5840 5842
5799 5799 5798 5798 5799 5799 5799 5799 5799 5799 5799 5800 5800 5801 5801 5802 5803 5803 5803 5804 5804 5805 5805 5805 5806 5807 5808 5809 5811 5813 5814 5816 5818 5820 5822 5824 5825 5827 5829 5831 5832 5834 5836
5793 5792 5792 5792 5792 5792 5792 5792 5792 5792 5792 5793 5794 5794 5795 5795 5796 5796 5796 5797 5797 5798 5798 5799 5799 5800 5801 5802 5804 5805 5807 5809 5811 5813 5814 5816 5818 5820 5822 5824 5826 5827 5829
5787 5786 5785 5785 5785 5785 5785 5785 5785 5785 5785 5786 5786 5787 5787 5788 5788 5789 5790 5790 5790 5790 5791 5791 5792 5793 5794 5795 5796 5798 5800 5802 5803 5805 5807 5809 5811 5813 5815 5817 5819 5821 5822
5781 5780 5779 5779 5778 5778 5778 5778 5778 5778 5778 5778 5779 5779 5780 5780 5781 5782 5783 5783 5783 5783 5783 5784 5784 5785 5786 5788 5789 5790 5792 5794 5796 5798 5800 5802 5804 5806 5808 5810 5812 5814 5815
5775 5774 5773 5772 5771 5770 5770 5770 5770 5770 5771 5771 5771 5772 5772 5773 5773 5774 5774 5775 5775 5776 5777 5777 5777 5778 5779 5780 5782 5783 5784 5786 5788 5790 5792 5794 5796 5798 5800 5803 5805 5806 5808
5769 5768 5766 5765 5764 5763 5762 5762 5762 5763 5763 5763 5764 5764 5764 5765 5765 5766 5766 5767 5768 5769 5769 5769 5769 5770 5772 5773 5774 5776 5777 5778 5780 5782 5784 5786 5788 5791 5793 5795 5797 5799 5801
5763 5761 5759 5758 5756 5755 5754 5754 5754 5754 5755 5755 5755 5756 5756 5757 5757 5757 5757 5758 5760 5761 5762 5762 5762 5762 5763 5765 5767 5768 5769 5770 5772 5773 5776 5778 5780 5783 5785 5787 5789 5791 5793
5756 5754 5752 5750 5749 5747 5746 5746 5746 5746 5746 5746 5747 5747 5748 5748 5748 5748 5749 5750 5751 5752 5753 5754 5754 5754 5755 5757 5759 5760 5761 5763 5764 5765 5768 5770 5772 5775 5777 5779 5781 5784 5786
5749 5747 5745 5743 5741 5740 5739 5738 5737 5737 5737 5737 5738 5738 5738 5739 5739 5739 5740 5741 5742 5743 5744 5745 5746 5746 5747 5749 5750 5752 5753 5755 5756 5758 5760 5762 5764 5766 5769 5771 5773 5776 5778
5742 5740 5738 5736 5734 5732 5731 5730 5729 5729 5728 5729 5729 5729 5729 5730 5730 5730 5731 5732 5733 5734 5735 5737 5737 5738 5739 5740 5742 5743 5745 5747 5748 5750 5751 5753 5755 5758 5760 5763 5765 5767 5769
5735 5733 5731 5729 5727 5725 5724 5722 5721 5721 5720 5720 5720 5720 5721 5721 5721 5722 5722 5723 5724 5725 5726 5727 5729 5730 5731 5732 5733 5735 5736 5738 5740 5741 5742 5745 5747 5749 5752 5754 5756 5759 5761
5730 5727 5725 5722 5720 5717 5716 5715 5713 5713 5712 5712 5712 5712 5712 5712 5712 5713 5714 5715 5715 5716 5717 5718 5720 5722 5723 5724 5725 5726 5728 5729 5731 5732 5734 5736 5738 5740 5743 5745 5748 5750 5752
5724 5721 5718 5715 5712 5710 5709 5707 5706 5705 5704 5704 5704 5703 5703 5704 5704 5704 5705 5706 5707 5707 5708 5710 5712 5713 5715 5716 5717 5718 5719 5720 5722 5723 5725 5727 5729 5731 5733 5736 5738 5741 5743
5718 5714 5711 5708 5706 5703 5702 5700 5698 5697 5696 5696 5695 5695 5695 5695 5695 5695 5696 5697 5698 5699 5700 5701 5703 5705 5706 5707 5708 5709 5710 5712 5714 5716 5716 5718 5720 5722 5724 5727 5729 5731 5734
5711 5708 5705 5702 5699 5697 5695 5693 5691 5690 5689 5688 5687 5687 5686 5686 5686 5687 5687 5688 5689 5690 5691 5693 5694 5696 5697 5698 5699 5700 5701 5703 5705 5706 5707 5709 5711 5713 5715 5717 5719 5722 5724
5705 5702 5699 5696 5693 5691 5689 5686 5684 5683 5682 5680 5679 5679 5678 5678 5678 5678 5678 5679 5680 5681 5682 5684 5685 5687 5688 5689 5690 5692 5693 5694 5696 5698 5699 5701 5703 5705 5707 5708 5710 5712 5714
5699 5696 5693 5690 5687 5685 5682 5680 5678 5676 5675 5674 5673 5672 5671 5671 5670 5670 5670 5670 5671 5672 5673 5674 5676 5677 5679 5680 5681 5683 5685 5686 5688 5689 5691 5693 5695 5696 5698 5700 5701 5703 5705
5693 5690 5687 5684 5681 5678 5676 5674 5672 5670 5669 5668 5666 5665 5664 5663 5662 5662 5662 5662 5663 5663 5664 5665 5667 5669 5670 5671 5672 5674 5676 5678 5680 5682 5683 5684 5686 5687 5689 5691 5692 5694 5696